,

(GMT )
Ceduna

Weather History for YPCD - January, 2014

Change the Weather History Date:

Monday, January 27, 2014

  Actual Average Record
Temperature  
Mean Temperature 84 °F -  
Max Temperature 106 °F - - ()
Min Temperature 61 °F - - ()
Cooling Degree Days 18    
Growing Degree Days 34 (Base 50)    
Moisture  
Dew Point 37 °F    
Average Humidity 20    
Maximum Humidity 53    
Minimum Humidity 4    
Precipitation  
Precipitation 0.00 in - - ()
Sea Level Pressure  
Sea Level Pressure 29.83 in    
Wind  
Wind Speed 9 mph ()    
Max Wind Speed 18 mph    
Max Gust Speed -    
Visibility 19.0 miles    
Events      
T = Trace of Precipitation, MM = Missing Value Source: Averaged Metar Reports

Daily Weather History Graph

Daily Weather History Graph

Search for Another Location

Airport or City:

Trip Planner

Search our weather history database for the weather conditions in past years. The results will help you decide how hot, cold, wet, or windy it might be!

Date:

Astronomy

Jan. 27, 2014 Rise Set
Actual Time 6:54 AM ACDT 8:40 PM ACDT
Civil Twilight 6:28 AM ACDT 9:07 PM ACDT
Nautical Twilight 5:55 AM ACDT 9:39 PM ACDT
Astronomical Twilight 5:21 AM ACDT 10:13 PM ACDT
Moon 2:49 AM ACDT (1/27) 5:01 PM ACDT (1/27)
Length of Visible Light 14h 39m
Length of Day
13h 45m
Waning Crescent, 20% of the Moon is Illuminated
Jan 27
Waning Crescent
Jan 31
New
Feb 7
First Quarter
Feb 15
Full
Feb 23
Last Quarter

Hourly Weather History & Observations

Time (ACDT) Temp. Dew Point Humidity Pressure Visibility Wind Dir Wind Speed Gust Speed Precip Events Conditions
12:00 AM 70 °F 53 °F 44% 29.90 in - East 2.3 mph - -  
12:30 AM 68 °F 53 °F 48% 29.90 in - East 5.8 mph - -  
1:30 AM 70 °F 48 °F 34% 29.88 in - East 11.5 mph - -  
2:30 AM 69 °F 48 °F 36% 29.87 in - ESE 6.9 mph - -  
3:00 AM 68 °F 48 °F 38% 29.87 in - East 5.8 mph - -  
3:30 AM 64 °F 51 °F 53% 29.86 in - ENE 8.1 mph - -  
4:30 AM 66 °F 49 °F 43% 29.86 in - ENE 9.2 mph - -  
5:30 AM 64 °F 49 °F 48% 29.86 in - ENE 10.4 mph - -  
6:00 AM 64 °F 48 °F 46% 29.86 in 19 mi NE 9.2 mph - -   Partly Cloudy
6:30 AM 65 °F 47 °F 42% 29.88 in - NE 5.8 mph - -  
7:30 AM 67 °F 46 °F 36% 29.88 in - NE 8.1 mph - -  
8:30 AM 81 °F 34 °F 10% 29.89 in - NE 12.7 mph - -  
9:00 AM 86 °F 30 °F 6% 29.89 in 19 mi NE 16.1 mph - -   Partly Cloudy
9:30 AM 90 °F 28 °F 5% 29.89 in - NNE 18.4 mph - -  
10:30 AM 96 °F 28 °F 4% 29.89 in - North 18.4 mph - -  
11:30 AM 99 °F 25 °F 4% 29.88 in - North 18.4 mph - -  
12:00 PM 100 °F 19 °F 4% 29.87 in 19 mi North 16.1 mph - -   Partly Cloudy
12:30 PM 101 °F 20 °F 4% 29.86 in - North 13.8 mph - -  
1:30 PM 102 °F 20 °F 4% 29.84 in - North 11.5 mph - -  
2:30 PM 104 °F 17 °F 4% 29.81 in - North 13.8 mph - -  
3:00 PM 104 °F 14 °F 4% 29.79 in 19 mi North 13.8 mph - -   Partly Cloudy
3:30 PM 106 °F 20 °F 4% 29.78 in - NE 13.8 mph - -  
4:30 PM 106 °F 17 °F 4% 29.76 in - North 15.0 mph - -  
5:30 PM 105 °F 31 °F 4% 29.74 in - NW 8.1 mph - -  
6:00 PM 103 °F 26 °F 4% 29.73 in - South 13.8 mph - -  
6:30 PM 102 °F 33 °F 4% 29.72 in - South 11.5 mph - -  
7:30 PM 99 °F 39 °F 6% 29.72 in - SSE 12.7 mph - -  
8:30 PM 89 °F 49 °F 16% 29.74 in - SSW 9.2 mph - -  
9:00 PM 83 °F 56 °F 30% 29.74 in - South 9.2 mph - -  
9:30 PM 85 °F 45 °F 15% 29.74 in - SE 11.5 mph - -  
10:30 PM 81 °F 42 °F 15% 29.75 in - SE 9.2 mph - -  
11:30 PM 78 °F 45 °F 21% 29.75 in - NE 3.5 mph - -